Wind_Speed
55 53 52 52 52 53 52 52 54 55 56 57 57 57 56 55 56 54 54 56 57 60 65 67 69 70 68 64 62 61 61 60 59 57 58 58 58 57 56 55 54 53 53 52 52 51 49 48 48 47 46 47 46 47 47 43 41 40 37 32 31 33 36 39 42 44 44 44 45 45 45 46 46 47 49 48 47 48 48 47 46 46 48 50 50 48
55 51 51 53 55 56 55 52 53 54 54 55 55 55 54 53 54 53 52 54 53 56 60 62 65 68 65 61 60 60 59 58 58 59 60 60 59 59 58 56 55 55 54 53 53 52 51 50 50 49 48 49 49 45 45 51 54 55 52 46 39 34 35 37 37 39 41 43 44 44 44 45 46 46 46 47 48 47 48 47 47 47 49 51 50 49
53 50 52 56 57 58 55 52 51 52 52 52 53 52 52 53 54 52 51 52 51 53 55 56 60 63 60 56 55 55 56 58 60 60 61 61 60 59 58 57 56 55 55 54 53 53 52 51 50 50 48 48 48 38 33 43 52 57 60 59 53 44 39 38 37 38 40 42 44 44 44 45 45 44 45 47 49 49 49 49 48 47 48 50 51 52
53 52 56 58 59 58 55 53 52 50 49 49 50 50 51 53 53 52 52 52 51 52 53 54 56 58 55 51 48 48 51 56 60 60 61 61 60 59 57 57 56 55 55 54 54 53 52 51 49 49 48 47 45 36 28 34 42 47 51 56 58 54 47 42 39 41 42 43 44 45 45 45 45 45 45 47 49 50 50 50 48 48 49 51 53 55
56 57 61 61 61 59 55 54 53 49 47 47 47 48 50 51 52 52 53 53 53 53 53 53 53 53 51 47 43 42 46 52 56 58 60 60 59 59 58 58 57 56 56 54 53 52 51 51 49 47 48 46 45 41 36 36 41 44 46 49 53 54 52 47 44 45 46 45 46 47 46 46 46 45 46 48 50 51 50 49 48 49 50 53 56 57
60 62 63 63 62 59 56 55 53 49 47 46 46 47 49 50 51 51 50 51 52 52 52 51 50 50 47 44 41 39 43 48 52 55 57 57 58 58 59 59 59 58 57 55 53 52 51 50 49 48 49 47 46 46 44 43 46 48 48 50 53 55 54 52 49 49 50 49 49 49 48 47 46 46 48 49 50 50 50 50 51 52 53 55 58 59
62 63 64 62 61 59 57 56 54 50 47 46 47 49 49 49 49 48 48 49 50 51 52 50 50 49 46 42 39 38 41 45 47 49 51 53 54 57 59 60 61 60 58 56 54 53 52 51 50 50 50 50 47 45 45 48 53 55 56 58 59 59 57 55 53 52 52 52 50 50 49 47 47 49 51 50 50 52 53 53 53 55 56 57 59 61
63 64 64 62 61 59 56 55 54 51 47 47 49 50 49 49 48 47 47 48 49 51 51 50 49 48 45 41 38 37 38 40 40 42 45 47 50 53 57 59 59 59 58 57 56 55 54 53 52 51 51 53 52 50 52 57 61 62 62 62 62 62 60 58 56 54 54 53 51 51 51 49 50 52 53 52 52 54 53 53 54 56 58 59 59 61
64 64 63 63 61 58 56 56 56 52 49 50 51 50 50 50 48 47 47 48 49 49 49 48 47 45 42 39 36 35 35 36 36 38 39 41 45 49 52 54 54 55 56 56 57 56 56 54 53 53 53 55 57 59 62 65 66 64 62 62 62 61 61 59 58 57 56 54 52 52 52 52 53 54 54 53 54 54 54 54 55 56 59 60 61 62
66 65 65 65 62 59 59 59 58 54 52 54 53 51 51 50 48 47 47 47 47 45 45 45 45 44 42 38 34 33 34 34 35 36 37 38 42 44 46 47 48 49 50 52 54 55 56 56 55 55 55 56 58 60 62 64 65 65 64 64 63 62 61 60 59 58 57 57 55 54 53 54 54 55 55 54 54 54 55 55 56 58 60 61 62 63
68 69 68 65 63 63 63 62 59 56 56 56 54 52 53 51 48 47 47 46 44 42 41 42 42 42 41 36 33 33 33 33 34 35 36 38 40 41 41 42 43 44 44 46 48 51 54 55 56 56 57 58 58 59 61 62 63 63 64 64 63 63 62 61 61 60 58 58 57 55 54 54 55 55 55 55 55 55 56 57 58 59 60 61 62 64
70 69 67 64 64 66 66 64 62 59 59 57 54 54 54 51 49 48 46 44 40 39 39 40 40 40 39 35 33 32 31 31 33 35 35 37 38 39 39 40 41 41 40 41 43 46 50 52 54 56 57 58 59 59 60 61 61 62 62 62 62 62 62 61 62 62 60 58 57 55 54 55 55 54 55 55 56 57 57 58 59 60 60 60 62 64
68 67 65 65 67 67 66 65 63 62 60 57 55 55 54 51 48 46 44 41 38 37 39 39 38 39 39 37 34 32 31 32 34 35 35 36 37 38 40 40 40 39 38 39 40 42 44 47 50 54 56 58 59 59 60 60 61 61 61 61 62 62 61 61 61 61 59 58 56 55 55 55 55 55 56 56 57 58 58 59 59 59 59 61 63 65
67 66 66 66 67 66 66 64 62 60 57 55 54 53 52 49 46 44 42 39 37 38 39 39 40 39 39 37 33 31 31 32 33 33 34 35 36 38 40 40 39 38 38 38 39 40 41 43 45 49 53 56 58 59 59 59 60 60 61 61 62 62 62 61 61 60 59 57 56 56 57 57 57 57 56 56 57 58 58 58 58 58 59 61 63 66
67 65 63 63 63 63 64 63 62 60 58 57 56 55 53 50 46 45 43 40 39 41 41 41 41 39 37 35 32 31 31 32 32 32 33 34 36 38 40 39 38 38 38 38 38 39 40 41 43 45 48 51 54 57 59 59 60 59 59 59 60 61 61 60 59 58 58 57 57 58 58 58 58 58 57 57 57 58 57 57 56 58 59 61 63 66
67 64 62 63 64 64 64 64 64 63 61 60 60 57 52 50 49 49 46 44 43 44 44 42 40 38 36 35 33 32 32 32 32 32 33 34 37 40 39 37 37 38 38 38 38 39 40 41 42 43 44 46 49 52 55 57 59 58 57 57 59 59 59 58 57 57 58 58 59 60 60 59 59 58 58 57 57 57 56 56 56 58 59 60 63 65
66 64 66 67 66 66 66 66 65 63 61 61 59 53 50 53 54 53 49 47 46 46 44 41 38 37 36 35 35 34 32 32 32 32 33 34 38 41 40 37 37 37 37 37 37 38 39 40 41 42 43 45 46 49 51 53 55 58 59 59 60 61 60 59 58 58 58 59 60 61 61 60 60 59 58 57 56 55 55 55 56 57 58 60 62 64
66 66 68 68 67 68 69 69 68 65 63 62 58 54 56 60 58 53 51 49 47 45 41 38 37 37 36 34 34 34 33 33 33 33 34 34 37 43 41 38 38 37 37 37 36 37 38 39 40 41 42 44 45 46 48 49 51 54 57 60 61 62 62 61 60 59 60 60 61 61 61 61 61 59 57 55 54 54 54 54 55 56 57 59 60 62
67 68 69 69 68 69 70 72 70 67 65 63 61 61 64 62 57 53 52 49 47 44 40 38 37 36 35 32 33 35 35 34 33 34 35 35 38 43 41 38 37 37 36 36 36 36 37 38 39 40 41 43 44 45 45 47 48 49 52 55 57 58 59 59 59 59 60 60 60 59 59 59 59 57 55 54 53 53 52 53 54 55 55 57 59 60
69 70 70 69 69 70 71 71 68 65 64 64 65 65 64 60 57 55 54 52 49 45 42 41 38 36 35 33 35 37 36 34 34 34 35 35 37 40 40 38 37 37 37 37 37 36 36 38 39 40 41 42 43 43 44 45 45 46 48 50 51 53 54 54 54 55 55 55 55 54 54 53 54 54 53 53 52 52 52 52 53 53 53 55 56 57
71 70 69 69 70 70 68 64 62 64 65 65 65 64 63 61 59 57 55 53 51 47 45 42 39 38 39 37 37 38 38 38 38 38 37 37 38 39 40 39 37 37 38 39 38 38 38 39 41 41 41 42 43 44 44 45 45 46 47 48 49 50 51 50 50 50 51 51 51 51 50 50 49 50 50 51 52 51 51 51 52 51 51 52 53 55
69 69 68 68 68 66 62 60 63 67 68 66 66 66 65 64 63 61 57 54 52 49 46 44 41 42 42 40 39 39 41 42 43 42 42 40 39 40 41 40 40 40 40 40 40 40 39 40 41 42 43 44 45 45 45 46 47 47 47 48 48 49 49 49 49 49 50 50 50 50 49 48 47 47 47 48 48 48 48 48 49 48 48 49 51 52
67 67 66 66 66 64 62 62 66 69 69 68 69 69 68 67 65 62 58 56 55 53 50 47 45 44 42 40 40 41 43 43 43 43 43 42 42 43 42 42 43 42 41 42 41 40 40 40 41 42 43 44 44 44 45 45 46 46 46 47 48 49 50 49 49 49 50 50 50 49 48 47 45 44 43 44 44 44 45 45 45 45 45 47 48 50
67 65 65 65 65 65 64 63 65 70 71 71 69 69 69 67 65 62 60 59 59 57 54 51 48 45 43 42 43 44 45 44 43 42 42 43 44 45 45 44 43 42 41 42 41 40 41 43 43 43 43 43 43 44 44 44 45 45 46 46 48 48 49 49 49 49 49 49 48 47 46 45 43 42 41 41 41 42 42 42 43 43 43 44 45 47
65 64 63 64 64 64 63 63 65 69 70 69 69 68 68 67 66 64 63 63 62 59 56 53 49 46 45 45 46 47 47 46 45 44 43 44 45 46 46 45 43 42 41 42 41 42 43 44 43 44 44 44 44 44 45 45 45 46 47 48 48 48 48 48 48 48 47 47 46 46 45 43 42 41 40 40 40 40 40 41 42 41 41 42 43 44
65 64 63 62 61 61 62 62 63 64 65 66 68 70 70 70 69 67 65 65 63 59 56 54 51 48 47 47 47 48 48 47 47 46 46 46 46 46 46 45 43 43 42 41 41 42 42 42 43 44 44 45 45 45 45 46 46 47 48 48 49 49 48 47 46 46 46 46 45 44 43 42 42 41 40 40 40 40 40 40 41 40 40 40 41 42
67 65 62 60 59 60 62 63 62 62 63 64 67 70 71 71 71 69 68 66 63 60 58 55 53 52 50 49 49 49 49 49 48 48 48 48 48 47 47 46 46 46 45 44 43 43 42 42 42 42 42 43 43 43 44 45 46 47 48 48 48 48 48 47 46 46 46 45 45 44 43 42 41 41 41 40 40 39 40 40 40 40 39 39 40 41
66 63 60 59 60 62 64 64 63 63 63 63 66 69 71 72 72 71 68 66 64 62 59 56 54 55 53 51 51 51 50 50 50 50 50 50 49 48 48 48 49 49 48 48 48 47 45 44 43 43 43 43 42 43 43 44 45 46 46 47 47 47 47 46 46 45 45 44 44 44 43 42 41 41 41 40 39 39 40 40 40 40 39 39 39 40
63 61 58 58 60 62 63 63 63 63 62 61 62 64 67 69 70 69 68 67 65 64 61 58 57 58 57 55 54 53 51 51 51 52 52 52 51 50 50 51 51 51 51 51 51 50 49 48 47 46 45 44 44 44 44 45 45 45 45 46 46 46 46 45 44 43 42 42 42 43 42 41 41 41 41 40 40 40 40 41 41 40 39 39 39 39
60 58 57 58 59 61 61 61 61 61 60 59 59 60 61 62 63 65 66 67 65 64 63 62 61 61 60 58 56 55 53 53 53 54 55 54 53 52 52 53 53 52 53 53 52 52 52 51 50 50 47 45 45 46 46 46 46 45 45 45 46 46 45 44 43 42 41 41 41 41 40 39 40 41 41 41 41 41 41 42 42 41 40 40 39 38
56 55 55 56 57 58 57 57 57 57 56 56 56 56 56 56 58 60 63 64 64 63 63 64 63 63 62 61 59 57 56 55 55 56 57 57 55 54 54 54 54 54 54 54 53 53 53 53 52 51 49 47 46 47 48 49 49 48 47 45 46 46 45 44 43 42 41 41 41 40 40 39 40 41 42 43 43 42 42 43 43 43 42 41 40 39
52 51 52 52 53 52 52 52 52 53 53 53 53 53 53 54 55 57 59 60 61 62 63 63 63 63 63 63 61 60 58 57 58 59 60 59 58 56 56 56 56 55 55 54 54 54 55 54 53 52 50 49 49 49 49 50 49 48 47 47 47 46 45 44 44 43 43 42 42 41 40 40 40 42 43 44 44 44 44 44 45 45 44 43 42 41
50 49 49 50 50 50 50 50 50 51 51 51 52 53 53 54 55 56 56 57 58 59 59 60 61 62 62 62 62 60 59 58 59 61 61 60 60 59 58 58 58 57 56 55 55 55 55 54 53 52 52 51 51 51 50 50 49 48 47 47 47 46 46 45 45 45 44 44 44 43 43 42 42 43 45 46 46 46 45 46 46 47 46 45 44 43
51 51 51 51 51 51 50 50 51 52 51 51 52 52 53 54 55 55 55 55 55 55 56 58 59 59 59 59 59 59 59 58 59 60 60 59 60 59 59 59 59 58 56 56 56 55 55 53 52 51 50 50 50 51 51 51 50 49 48 48 47 47 47 47 47 47 46 46 46 46 46 45 44 45 46 47 47 47 47 47 48 48 48 48 47 46
50 51 51 52 51 51 50 51 51 50 49 51 52 52 52 52 53 53 53 53 53 54 55 56 56 56 57 56 57 57 58 58 59 59 59 59 60 60 60 59 58 57 56 56 55 54 53 51 50 49 49 49 50 52 52 52 51 50 50 49 49 49 49 50 50 50 49 48 48 48 48 48 48 47 47 48 48 49 49 49 50 50 50 50 50 49
50 50 50 50 50 49 50 50 49 47 48 50 51 50 49 49 50 50 50 50 50 51 51 52 52 51 51 51 52 53 54 55 56 56 57 57 56 57 57 57 56 54 54 54 54 52 50 49 48 48 49 50 51 52 52 52 51 51 50 49 48 49 50 51 52 52 51 51 50 50 49 49 49 49 49 49 50 50 50 51 51 51 52 52 52 51
50 49 50 50 50 50 50 50 49 48 49 50 50 49 48 47 47 47 47 47 47 47 47 47 47 47 47 48 49 50 52 52 52 52 53 54 53 54 54 54 53 52 52 53 52 51 49 47 47 48 49 51 52 52 52 51 50 48 47 47 48 49 50 51 51 52 52 52 51 51 51 50 50 51 51 51 51 51 52 52 53 53 53 53 53 53
50 50 50 51 51 51 51 51 50 50 50 50 50 49 47 47 47 47 46 46 46 46 46 46 47 47 48 50 51 52 53 52 52 52 52 54 54 54 53 53 52 51 51 52 51 50 48 47 47 47 48 50 51 51 51 50 48 45 44 46 48 50 51 51 52 52 51 51 51 51 51 50 50 51 52 52 52 53 53 53 54 54 55 55 55 55
50 50 51 51 51 51 52 52 51 51 51 51 51 49 48 48 48 48 47 46 46 47 47 48 49 49 50 51 52 53 53 52 52 52 53 54 55 53 52 52 52 52 52 51 51 49 48 47 47 47 48 49 51 51 50 47 45 44 44 47 48 50 51 52 52 52 51 50 50 49 50 51 51 52 52 53 53 53 54 54 55 55 56 56 56 56
49 50 50 50 50 51 52 51 51 51 51 51 50 49 48 48 48 47 46 46 47 48 48 49 50 50 50 50 50 50 51 51 50 50 51 52 52 50 50 50 51 51 51 50 49 48 47 47 47 48 49 50 51 50 48 46 44 44 46 48 49 50 51 51 51 51 51 51 50 49 50 50 51 52 52 53 53 53 54 55 55 56 56 57 56 56
50 50 50 50 51 51 51 50 50 50 50 50 49 48 48 47 46 45 45 48 50 49 48 49 50 50 50 50 50 50 50 49 47 46 48 49 49 48 48 49 49 50 49 49 48 47 47 47 48 49 50 51 51 50 49 48 47 47 48 50 51 51 51 49 48 48 50 50 51 50 50 50 51 52 53 53 53 54 54 55 55 56 57 57 57 58
51 50 50 50 51 51 50 50 50 50 50 49 49 48 47 46 45 46 49 52 51 49 49 49 50 50 51 51 51 51 50 48 45 45 46 48 49 49 49 48 48 48 48 48 48 47 48 48 49 50 50 51 51 50 50 49 49 49 50 51 52 52 52 50 49 49 49 49 50 50 50 50 51 51 52 53 53 54 54 55 55 56 57 58 58 59
52 52 51 51 51 51 51 50 49 49 50 50 49 49 48 48 49 52 53 52 50 49 50 50 51 51 51 51 51 50 49 47 45 44 45 47 48 48 48 48 48 48 48 48 48 48 48 48 49 50 51 51 50 48 47 47 48 49 50 51 52 53 53 54 54 53 51 49 49 49 49 50 50 51 52 52 53 53 54 55 56 57 58 59 60 61
52 52 52 51 51 52 52 51 51 51 52 51 50 49 49 50 53 54 52 51 49 48 49 50 50 50 51 52 51 49 46 45 45 45 46 46 47 47 47 47 47 47 47 47 48 48 48 48 49 49 48 47 46 45 45 47 48 49 50 51 53 54 56 57 58 57 54 51 50 49 49 50 51 51 52 52 53 54 55 56 57 58 59 60 61 63
50 50 50 51 52 52 51 51 51 51 51 50 50 49 49 50 51 52 51 50 48 47 48 50 49 49 51 51 48 45 44 43 44 44 45 45 46 47 47 47 47 47 47 47 47 47 47 47 47 46 44 44 44 44 46 48 49 50 52 53 55 56 58 59 59 57 56 54 53 52 52 52 52 53 53 54 54 55 56 57 58 60 61 62 63 64
48 48 49 50 50 49 48 47 47 47 48 48 47 47 47 47 48 49 49 48 47 47 48 48 48 48 47 45 42 41 40 38 37 38 40 42 45 48 48 49 49 50 50 49 49 48 47 46 45 44 44 44 45 46 48 49 51 52 54 55 56 56 56 55 55 54 54 54 55 55 54 54 54 54 55 55 56 57 58 59 60 61 62 64 65 66
46 46 46 45 44 44 44 44 44 43 44 45 46 46 47 48 49 49 49 48 47 47 47 47 46 44 41 39 38 37 35 33 32 32 34 37 41 45 47 48 49 50 51 51 50 49 47 45 44 45 45 46 47 48 49 51 52 53 53 53 53 52 52 51 51 52 52 53 54 54 54 55 55 55 56 56 57 58 59 60 62 63 64 66 67 69
40 39 38 38 38 39 39 40 40 40 41 43 45 47 49 51 51 50 48 47 46 46 46 45 43 40 39 38 37 37 36 34 33 33 34 35 37 39 42 43 44 45 46 47 47 47 45 44 44 44 45 46 48 49 50 51 51 51 50 50 50 50 50 50 51 51 52 52 53 53 54 55 56 56 57 58 59 60 61 62 64 65 67 68 69 71
32 32 32 34 35 35 35 36 36 37 39 42 44 46 48 50 49 48 46 46 46 46 46 44 41 39 38 38 37 37 37 36 36 36 36 37 37 38 38 38 39 40 42 43 43 42 41 41 41 43 45 46 48 49 49 50 50 50 50 50 50 50 51 51 51 51 52 52 53 54 55 56 57 57 58 59 60 61 63 64 66 67 69 70 72 73
29 29 31 31 32 32 33 34 35 35 37 39 41 44 46 47 46 45 44 44 45 45 44 42 40 39 39 38 38 36 36 36 36 36 37 38 38 38 38 39 40 40 40 40 39 38 38 39 41 43 45 47 48 49 50 51 51 52 52 52 52 52 52 52 52 52 53 53 54 55 56 57 58 58 59 60 62 63 65 66 68 69 70 72 73 74
28 28 28 28 29 30 32 34 34 35 36 37 39 41 43 44 44 44 43 43 42 42 42 41 40 39 39 38 37 35 34 33 33 33 35 36 37 37 38 39 40 39 38 38 37 38 40 41 43 45 46 48 49 50 52 53 54 54 54 53 53 53 52 52 52 52 53 54 55 56 57 58 59 60 61 62 63 65 66 68 69 71 72 73 74 74
Wind_Direction
234 233 233 232 231 231 230 229 227 227 226 226 227 229 230 232 233 233 234 235 234 234 235 236 237 239 239 238 237 238 239 241 243 244 245 245 245 245 244 245 246 246 246 246 247 247 247 246 245 245 246 248 250 252 256 267 278 278 278 281 283 283 281 279 278 277 278 281 284 282 281 282 282 285 288 288 287 287 285 285 287 290 293 295 298 300
233 233 233 232 232 231 230 230 229 228 227 227 228 229 230 232 234 233 234 236 236 235 237 238 239 240 240 240 239 239 239 240 242 243 244 245 245 245 246 246 246 247 247 248 248 248 248 247 247 247 247 249 253 256 258 265 272 273 272 273 277 282 282 281 281 279 278 279 281 281 282 282 283 285 286 286 288 288 287 287 287 289 292 294 297 299
233 233 233 232 232 231 231 231 232 229 227 227 227 227 228 229 231 231 233 236 236 237 238 239 240 241 242 241 240 240 239 239 240 242 244 245 246 247 247 247 247 248 249 249 249 249 249 248 248 248 248 249 254 259 264 270 272 270 268 267 269 274 278 279 280 279 278 277 278 280 282 282 281 283 284 285 286 288 289 289 288 289 291 294 297 301
229 230 231 231 231 231 230 231 232 230 228 227 227 227 227 229 230 229 230 232 233 235 236 237 239 240 241 241 240 240 239 239 241 243 244 246 248 248 249 248 248 248 248 249 249 249 249 249 249 249 249 248 252 253 258 269 270 267 265 264 263 266 270 274 276 276 276 276 278 280 281 281 280 281 284 286 287 287 288 289 289 291 293 297 300 302
225 225 227 227 229 229 228 230 231 230 228 228 228 228 228 229 228 228 229 231 232 233 235 237 238 240 241 242 242 241 241 241 242 244 245 246 248 249 250 250 249 248 248 248 249 249 249 249 248 248 248 247 247 244 245 259 264 261 261 262 263 264 267 269 271 273 274 276 280 280 279 279 279 282 286 289 289 288 288 289 291 295 297 300 302 303
222 224 226 226 227 227 226 229 230 229 228 228 228 229 229 229 228 227 228 232 234 234 235 236 239 241 240 240 240 240 240 241 242 243 245 246 247 249 249 250 249 249 248 248 248 249 248 248 246 244 244 243 242 239 239 248 253 256 261 264 267 268 268 267 268 271 272 275 278 278 277 276 276 282 287 289 288 288 288 290 292 295 298 301 302 303
221 223 225 226 227 226 225 228 229 228 228 228 229 230 229 228 228 227 227 230 233 234 234 234 236 238 238 238 237 237 237 239 241 242 244 245 246 247 248 248 248 248 248 247 247 247 246 246 244 242 241 240 239 236 234 239 247 256 265 268 269 269 269 268 268 269 270 272 275 275 275 274 275 281 287 286 284 285 287 289 291 294 297 300 302 303
221 223 224 225 226 226 226 228 230 229 229 229 231 231 230 228 227 225 225 227 231 233 233 233 235 238 238 238 237 236 237 239 240 241 242 243 244 245 246 246 247 247 247 246 246 245 245 244 244 242 241 239 237 233 232 239 249 260 266 268 267 268 268 269 268 267 268 270 272 274 275 276 277 282 285 283 282 284 286 289 292 295 298 300 301 302
220 222 223 224 224 225 225 227 228 227 227 229 230 231 231 229 226 225 225 226 229 233 234 234 235 237 237 237 236 236 237 238 238 238 239 240 242 243 245 246 247 247 247 246 246 246 245 245 244 244 242 240 239 238 240 245 251 257 261 263 265 266 266 267 266 266 267 267 270 273 274 277 279 282 283 282 282 284 286 290 294 297 300 300 301 302
218 219 220 221 221 221 222 224 225 225 226 228 229 230 231 230 227 225 225 226 229 232 236 237 236 235 234 232 232 233 235 235 236 237 237 238 239 241 244 246 247 247 247 247 247 247 246 246 245 244 244 243 243 244 246 249 251 254 257 261 263 264 265 265 264 265 265 265 268 273 273 276 280 281 281 281 283 286 288 292 295 298 300 301 302 303
216 217 218 218 219 219 220 221 222 222 224 227 228 229 231 230 227 225 225 225 227 230 235 238 238 236 234 230 227 229 232 234 236 237 237 237 238 240 242 244 245 245 245 246 246 247 246 246 245 245 244 245 245 246 248 250 252 255 257 260 263 264 263 263 263 265 266 266 269 273 275 277 280 281 281 281 284 287 290 293 296 298 299 301 302 304
217 217 217 217 218 218 219 221 221 221 223 226 227 229 231 230 228 225 225 225 225 228 233 237 238 237 234 227 223 225 227 230 232 234 235 237 239 241 242 243 244 245 245 245 246 246 246 246 245 245 245 245 246 247 248 250 252 255 257 259 262 263 263 263 264 266 267 268 271 274 276 277 280 282 282 282 285 287 291 294 296 298 299 300 302 304
218 218 217 217 218 218 219 220 221 222 224 226 227 229 231 232 230 227 226 224 223 227 231 235 238 238 234 226 220 220 221 225 229 231 234 238 239 240 241 241 243 244 245 245 245 246 246 246 246 246 246 246 247 248 249 250 252 254 256 258 261 262 263 265 266 267 269 271 272 274 276 277 279 283 284 284 286 288 291 294 296 297 299 301 303 305
218 218 217 218 219 219 220 221 222 224 227 229 230 231 233 234 233 231 229 226 224 226 228 230 234 237 236 231 221 217 220 226 231 233 236 239 240 240 240 240 241 242 243 243 244 245 246 245 246 246 246 247 247 248 249 250 251 253 255 258 260 262 265 266 268 269 270 271 272 274 276 277 279 283 284 286 287 289 292 295 297 299 301 303 305 307
216 217 218 220 221 221 221 222 222 223 224 227 228 230 232 233 233 233 230 227 225 226 226 226 228 232 236 236 226 216 219 226 231 234 237 238 239 239 240 240 241 242 242 243 245 246 246 246 245 246 247 247 248 248 248 249 251 252 254 257 260 262 265 267 268 269 269 270 273 275 277 279 280 283 285 287 289 291 293 295 298 300 302 305 307 308
214 214 215 218 220 221 221 221 222 222 223 225 227 228 230 232 233 233 231 228 227 226 224 222 223 227 231 235 232 221 217 224 229 233 236 237 238 241 242 242 243 243 243 244 246 247 247 247 247 247 247 248 249 249 248 249 249 251 253 257 259 261 263 266 268 269 269 271 273 275 277 279 281 283 285 287 289 291 293 295 298 300 302 305 307 307
213 213 213 214 215 217 219 219 220 222 223 226 229 230 231 232 231 231 231 229 229 227 223 219 220 224 226 229 233 228 220 222 227 231 233 234 238 242 243 242 242 243 243 244 245 247 248 249 249 249 250 251 251 252 251 251 251 252 253 256 258 260 262 265 268 270 271 272 273 274 276 278 280 283 285 286 288 290 293 295 297 300 302 305 306 307
212 213 214 213 213 215 217 218 218 219 221 224 227 228 230 231 230 231 232 231 231 229 224 221 221 225 225 225 232 234 228 224 225 225 226 228 235 242 242 241 241 243 244 245 246 248 250 252 252 252 252 253 254 255 256 256 255 255 255 256 258 261 264 267 269 271 272 273 274 275 276 277 279 281 283 285 288 290 292 294 296 300 302 304 306 307
210 212 214 213 213 214 216 217 217 217 219 222 224 225 227 229 230 231 233 234 234 232 228 225 224 226 227 225 230 235 233 229 226 223 222 224 234 243 245 244 244 246 248 249 250 251 253 255 256 255 255 255 255 256 257 258 258 258 258 259 261 263 266 269 270 272 273 274 275 276 277 278 278 279 280 283 286 289 292 294 296 299 302 304 306 308
209 211 213 212 213 214 215 218 218 218 219 221 223 225 228 230 230 231 232 233 234 232 229 228 226 228 228 225 227 232 233 232 227 223 223 225 233 243 246 245 246 248 250 251 252 253 254 256 257 257 257 256 256 257 257 259 259 260 261 262 264 266 267 269 270 272 273 275 276 278 279 279 279 278 278 281 284 287 290 293 296 299 301 303 306 309
209 210 212 212 214 215 216 218 219 219 220 222 224 226 229 230 231 232 233 234 234 232 230 228 225 226 227 224 224 229 231 230 227 225 227 227 230 239 243 243 244 245 248 250 251 252 252 253 255 256 257 257 256 256 257 258 259 260 262 264 266 267 268 270 272 274 276 277 279 280 281 281 281 279 279 280 283 285 289 292 294 298 301 303 307 310
210 211 211 212 214 215 216 217 218 220 220 221 223 225 227 229 230 231 233 234 236 234 232 230 227 226 227 224 223 226 229 231 230 230 231 231 231 236 240 242 242 243 246 248 249 250 251 252 254 255 257 258 257 257 259 260 262 264 266 268 269 270 271 273 274 276 277 279 280 281 282 282 281 281 280 281 282 285 288 291 293 296 300 303 307 311
211 212 212 212 213 214 214 215 217 219 220 220 222 224 226 227 229 230 232 234 236 236 234 232 229 228 228 226 226 228 231 233 234 234 235 236 237 238 240 242 243 244 245 248 249 250 252 253 255 256 256 258 260 261 262 264 265 267 269 270 270 271 272 273 274 275 276 277 278 280 281 281 281 281 280 281 282 284 287 289 292 296 300 303 307 311
210 212 212 212 213 213 214 214 216 219 220 220 222 224 227 228 229 230 231 233 235 236 234 233 230 228 228 228 229 231 233 234 235 236 237 239 240 242 243 243 244 246 247 249 252 254 255 256 257 258 257 259 262 263 263 265 267 268 269 269 270 270 271 272 272 273 275 276 277 278 279 279 279 279 279 280 281 283 285 288 291 295 299 303 307 311
211 212 213 213 213 214 214 215 217 220 221 221 222 225 227 229 230 230 231 232 234 235 236 235 233 230 229 229 230 232 234 234 235 237 238 240 242 244 246 246 247 248 248 251 254 255 256 257 259 260 260 261 263 263 263 265 267 268 269 269 269 270 270 270 271 272 273 275 276 278 278 278 277 277 277 278 280 282 284 287 290 294 298 302 306 310
210 212 213 213 213 214 216 217 219 222 223 223 223 225 227 229 230 230 231 232 234 235 237 238 238 236 234 233 233 235 236 236 237 238 239 241 242 244 247 249 250 250 249 250 252 254 255 257 258 259 261 261 262 263 264 266 267 267 268 269 270 270 270 270 270 272 273 274 276 278 278 277 276 275 275 276 278 280 282 285 288 293 297 300 305 309
210 211 212 212 212 213 215 217 219 221 223 223 224 225 227 229 231 231 232 233 235 236 237 238 240 240 239 238 237 238 239 239 240 240 241 242 243 245 248 251 252 253 253 252 252 254 255 256 256 257 259 261 262 264 266 267 267 267 268 269 270 270 271 270 270 272 273 274 276 277 276 275 274 273 273 273 275 277 279 283 287 291 295 298 303 307
210 210 211 212 212 213 214 215 217 219 222 223 224 225 227 229 231 232 234 235 236 237 238 239 240 241 241 240 240 240 241 242 242 243 244 245 246 247 249 251 253 255 256 256 256 256 256 255 255 257 258 260 263 265 267 268 268 268 267 268 269 270 271 271 271 272 274 275 275 275 274 273 272 271 270 271 272 274 277 281 285 289 293 296 300 304
210 210 211 213 214 215 215 216 217 219 221 223 225 227 228 231 233 234 235 237 237 238 240 239 239 241 241 241 241 242 242 243 244 244 245 246 247 248 249 252 254 256 257 258 258 258 256 255 257 258 258 260 263 265 266 268 269 269 269 268 269 271 272 272 272 272 274 274 274 274 273 272 270 269 269 270 271 273 276 280 284 287 290 294 298 301
211 211 212 214 216 217 217 217 218 220 222 224 226 228 231 233 235 237 237 238 239 240 241 241 240 241 242 242 242 242 242 243 244 246 246 247 247 249 251 253 255 256 257 257 258 257 256 256 257 258 259 260 262 263 265 267 268 270 273 272 271 271 271 271 271 272 274 274 273 273 272 271 270 268 268 269 269 271 275 279 282 284 287 291 295 298
212 213 214 216 218 219 219 219 221 223 224 226 228 230 233 235 236 237 238 240 241 242 243 243 243 243 244 244 243 243 242 243 244 245 247 248 249 250 251 252 254 254 255 255 255 255 255 256 257 258 259 260 261 263 265 267 267 269 272 273 271 270 269 270 270 272 274 274 273 272 272 271 270 268 267 268 269 271 274 278 280 283 285 289 292 295
213 215 217 219 220 220 220 221 222 225 226 227 228 230 232 234 235 236 237 239 240 241 242 243 244 244 244 244 243 243 242 242 243 244 246 248 249 250 250 251 252 252 253 253 254 254 254 255 255 256 258 260 263 265 266 266 267 269 271 273 271 270 270 270 271 272 274 274 273 273 272 271 271 269 267 267 268 270 273 276 279 281 284 287 290 293
212 214 217 219 220 220 220 220 221 223 225 226 227 228 228 230 232 234 235 236 238 239 240 241 242 242 243 243 243 243 242 242 242 244 245 247 249 249 250 251 252 252 252 251 251 251 252 253 254 255 257 261 264 265 266 267 269 271 273 273 271 270 271 271 272 273 274 274 274 275 273 272 272 271 269 268 268 270 272 275 277 280 283 286 289 291
211 212 213 215 217 218 218 218 220 221 222 224 226 227 228 229 231 232 234 235 236 238 239 240 241 242 242 243 243 243 242 242 242 244 245 247 248 249 250 250 251 251 250 249 248 248 250 251 252 254 257 260 263 265 266 269 271 273 273 271 269 270 271 271 273 273 274 275 275 275 274 273 273 273 270 269 269 270 272 273 275 278 282 285 288 290
211 213 214 216 216 217 218 219 220 221 222 225 227 227 228 230 231 233 234 235 236 237 238 239 240 241 242 243 244 244 244 243 243 244 245 246 247 248 249 249 249 248 247 246 246 247 249 250 252 254 257 259 262 264 267 269 271 272 271 269 268 269 270 271 273 274 274 275 276 276 276 274 272 272 272 270 269 270 271 273 275 277 280 284 286 289
211 212 215 217 218 218 219 220 221 222 223 226 228 229 229 230 231 232 233 233 234 235 237 238 239 240 241 242 243 243 243 243 243 243 244 245 246 247 247 246 246 245 245 245 246 246 248 250 252 254 257 259 262 263 265 267 269 270 269 268 268 269 270 271 273 275 275 275 275 276 276 275 272 272 272 271 270 270 271 272 274 277 279 282 285 287
211 212 215 217 218 218 220 220 220 221 222 225 227 228 229 230 231 232 232 232 233 234 236 237 238 239 240 241 241 241 241 241 241 241 242 243 243 243 243 242 242 242 244 245 246 247 248 250 253 255 257 259 260 262 265 267 267 266 266 267 268 270 271 272 274 276 276 276 275 275 275 274 272 271 272 272 271 271 272 273 274 276 279 281 284 286
211 212 215 217 218 219 220 221 221 222 223 225 227 229 230 230 232 233 233 234 235 236 237 238 238 239 240 241 241 241 241 241 241 241 241 240 240 240 240 239 239 240 242 245 246 248 249 250 252 254 256 258 259 263 267 266 262 262 264 267 270 271 273 274 275 275 276 276 275 274 273 272 272 272 272 272 272 272 272 273 274 276 278 281 283 285
214 215 216 218 219 220 221 222 222 223 224 226 228 229 230 232 234 235 236 237 238 239 240 240 240 240 240 241 242 242 243 243 242 241 241 241 240 239 239 239 239 239 241 243 246 248 249 251 253 254 256 258 260 265 267 265 261 262 265 268 271 273 275 276 276 275 274 275 276 274 272 271 271 271 272 272 272 273 273 274 275 276 278 280 282 284
217 218 219 220 221 222 224 225 225 225 226 228 229 229 231 232 234 236 238 239 239 239 239 241 241 241 240 241 242 242 242 242 242 243 242 242 241 240 239 239 239 240 241 244 246 248 250 252 253 255 256 259 262 264 264 262 261 263 265 267 271 274 276 277 277 277 275 275 275 275 273 271 270 271 272 272 272 273 273 274 276 277 279 281 282 284
219 220 221 222 224 225 226 227 228 228 229 230 231 231 232 233 235 236 237 237 237 237 237 239 241 242 242 242 243 242 241 240 239 240 241 240 239 239 238 239 240 241 243 245 247 250 251 253 254 255 256 258 261 262 262 260 261 262 264 268 271 274 275 277 279 281 279 277 276 275 274 273 272 271 272 272 273 274 274 276 277 279 281 282 283 285
221 222 223 224 226 227 228 228 229 230 231 232 232 232 233 234 235 235 236 236 236 237 238 238 240 242 242 242 242 243 242 240 238 238 239 239 238 238 239 239 241 242 244 246 248 250 251 252 254 255 257 259 261 263 262 262 263 265 267 269 271 273 275 277 280 283 282 280 277 276 275 275 274 273 274 274 275 276 277 278 280 281 282 284 285 286
223 224 225 226 228 229 230 231 232 233 234 234 233 233 233 234 234 234 235 237 238 238 238 237 238 240 242 242 243 244 244 242 240 239 239 238 238 239 240 241 242 243 245 246 247 248 250 251 253 256 258 260 262 262 262 263 264 266 268 270 272 274 276 277 279 282 282 281 279 277 276 276 276 276 276 277 278 279 280 281 282 283 284 285 286 287
226 227 229 230 231 232 232 233 233 234 235 235 235 234 233 234 235 236 236 237 238 238 238 237 237 238 240 241 243 244 245 245 244 243 241 238 238 238 240 241 242 244 245 245 246 247 249 251 254 256 257 258 259 260 261 263 265 267 269 271 273 275 277 278 280 282 282 280 280 280 279 279 279 279 280 280 281 282 283 284 285 286 286 287 288 288
231 232 233 233 233 234 234 234 234 235 235 235 235 234 233 233 235 236 236 236 235 236 236 236 236 236 237 240 243 245 245 245 245 243 241 238 237 237 238 239 241 242 244 245 247 248 250 252 253 254 254 255 257 258 261 263 265 267 270 272 274 276 278 280 281 282 281 279 280 281 282 282 283 283 283 283 284 285 285 286 287 287 287 288 288 288
233 234 234 235 235 236 236 235 235 234 233 232 232 231 230 229 229 230 231 232 232 232 233 234 234 236 238 240 242 242 243 244 243 240 237 236 236 237 238 240 241 243 245 247 249 250 251 251 250 250 251 254 256 259 262 265 267 270 273 276 277 278 280 281 282 282 281 280 280 281 283 283 284 284 285 285 286 286 286 287 287 287 288 288 288 288
232 233 234 235 236 235 235 234 232 231 229 228 227 225 224 223 224 225 226 227 229 230 231 232 233 235 237 237 237 238 239 241 241 238 236 236 237 237 238 240 242 243 245 247 248 249 249 248 247 248 252 255 258 261 264 268 271 275 277 278 279 280 281 282 282 282 281 281 281 282 283 284 284 284 285 285 286 286 286 287 287 287 288 288 288 288
232 233 234 234 233 231 230 230 228 226 224 224 223 221 220 221 223 224 224 225 227 229 230 231 232 232 232 233 234 236 237 239 240 239 237 236 236 237 237 237 239 241 242 244 245 246 246 246 248 251 256 259 263 265 268 271 275 278 279 279 280 281 282 282 282 282 282 282 282 283 283 284 284 285 285 286 286 287 287 287 287 287 288 288 288 289
228 228 227 227 226 225 224 224 223 221 220 219 219 219 219 221 223 224 224 224 225 227 230 232 232 232 232 233 235 237 239 240 240 238 236 235 235 235 235 235 237 238 240 242 244 246 248 250 253 257 261 264 267 268 271 274 278 279 279 279 281 282 282 282 282 283 283 283 283 284 284 285 285 286 286 286 287 287 287 287 287 288 288 289 290 290
222 221 222 223 223 221 220 220 218 216 216 216 216 216 218 219 221 222 223 223 225 227 230 232 233 234 235 236 238 240 240 239 237 236 235 234 235 236 237 238 238 240 242 245 249 251 254 256 258 260 263 266 268 270 272 275 277 279 279 280 281 281 281 282 282 283 283 283 284 284 284 285 285 286 286 286 286 287 287 288 289 289 290 291 292 293
218 218 221 223 221 219 217 217 217 215 215 215 214 215 217 218 219 221 223 223 224 227 230 232 233 234 236 238 239 239 237 236 234 234 235 237 238 241 243 244 245 248 251 253 255 256 257 258 260 262 264 266 268 270 272 274 276 278 279 279 279 279 280 280 281 281 281 282 282 283 283 284 285 285 286 287 288 289 289 290 291 292 293 294 294 295
Height
10610 10616 10623 10628 10631 10633 10634 10637 10638 10641 10646 10650 10654 10658 10662 10666 10668 10672 10675 10675 10680 10683 10682 10685 10687 10689 10698 10710 10718 10722 10725 10727 10729 10731 10731 10731 10734 10738 10741 10743 10745 10747 10748 10750 10752 10754 10757 10759 10760 10761 10762 10763 10764 10765 10763 10761 10760 10759 10759 10757 10756 10756 10756 10756 10757 10758 10759 10759 10758 10758 10758 10758 10758 10758 10757 10756 10755 10753 10752 10751 10750 10747 10745 10745 10745 10744
10607 10615 10620 10621 10622 10624 10627 10631 10633 10637 10642 10647 10651 10655 10660 10662 10663 10668 10671 10672 10677 10679 10677 10681 10682 10684 10693 10705 10712 10717 10722 10725 10725 10724 10723 10724 10728 10731 10735 10738 10740 10741 10743 10745 10748 10750 10752 10753 10756 10757 10758 10759 10761 10765 10764 10759 10756 10755 10754 10754 10753 10753 10753 10753 10754 10755 10755 10755 10755 10754 10754 10754 10754 10754 10752 10751 10750 10749 10748 10747 10746 10743 10741 10741 10740 10739
10606 10613 10612 10612 10614 10618 10624 10628 10630 10634 10639 10644 10647 10652 10655 10654 10657 10664 10667 10668 10672 10674 10674 10678 10678 10680 10689 10699 10706 10713 10718 10720 10719 10718 10718 10719 10722 10726 10730 10732 10734 10736 10738 10741 10743 10744 10746 10748 10751 10752 10754 10756 10758 10764 10764 10756 10749 10746 10746 10748 10749 10750 10750 10750 10751 10751 10752 10751 10751 10751 10751 10750 10750 10750 10749 10747 10745 10744 10743 10743 10741 10739 10737 10735 10735 10734
10603 10605 10603 10605 10608 10612 10620 10622 10624 10630 10636 10640 10643 10647 10648 10648 10653 10658 10660 10662 10665 10667 10670 10672 10674 10676 10684 10693 10701 10708 10712 10713 10713 10714 10715 10716 10718 10721 10724 10726 10729 10731 10733 10735 10737 10739 10740 10743 10747 10748 10749 10751 10754 10759 10760 10753 10743 10737 10738 10740 10742 10745 10746 10747 10748 10748 10748 10748 10747 10747 10747 10747 10746 10746 10745 10743 10741 10739 10738 10737 10736 10734 10732 10730 10729 10728
10594 10593 10592 10596 10600 10607 10615 10616 10620 10627 10632 10635 10638 10640 10641 10643 10648 10652 10655 10656 10658 10661 10665 10668 10670 10674 10682 10690 10697 10703 10707 10708 10709 10710 10711 10712 10714 10716 10718 10720 10722 10725 10727 10729 10731 10733 10736 10739 10742 10744 10744 10746 10749 10752 10754 10751 10739 10731 10732 10734 10736 10739 10741 10743 10744 10744 10744 10743 10743 10742 10742 10742 10742 10741 10740 10739 10736 10734 10733 10732 10730 10730 10728 10726 10723 10722
10585 10583 10584 10590 10595 10603 10610 10611 10616 10623 10626 10630 10633 10633 10634 10637 10642 10647 10652 10653 10654 10658 10661 10665 10668 10672 10679 10687 10694 10699 10702 10702 10704 10705 10706 10707 10709 10710 10712 10713 10715 10718 10721 10724 10726 10728 10731 10734 10737 10739 10738 10741 10745 10748 10749 10745 10733 10726 10727 10729 10731 10733 10736 10738 10739 10740 10740 10739 10738 10738 10737 10737 10737 10737 10736 10735 10733 10730 10729 10728 10726 10725 10724 10722 10718 10715
10576 10577 10580 10586 10592 10599 10605 10607 10612 10618 10623 10626 10626 10625 10628 10632 10638 10644 10648 10649 10650 10652 10656 10661 10664 10667 10675 10684 10690 10695 10696 10696 10698 10700 10701 10702 10704 10705 10705 10705 10707 10711 10714 10717 10720 10722 10724 10727 10730 10733 10735 10737 10741 10745 10744 10736 10726 10722 10724 10725 10727 10728 10730 10733 10734 10735 10735 10734 10734 10733 10733 10733 10733 10733 10732 10731 10729 10727 10725 10724 10722 10720 10719 10718 10714 10710
10571 10572 10576 10583 10588 10596 10603 10606 10609 10615 10619 10620 10619 10619 10623 10628 10633 10639 10643 10645 10645 10645 10651 10658 10660 10665 10673 10681 10687 10691 10692 10693 10695 10696 10696 10697 10698 10698 10697 10698 10700 10703 10707 10710 10712 10715 10717 10720 10724 10727 10731 10734 10735 10736 10733 10727 10723 10723 10722 10720 10722 10724 10726 10728 10729 10729 10730 10730 10729 10729 10729 10729 10729 10728 10727 10726 10725 10723 10721 10720 10718 10715 10713 10711 10709 10706
10564 10567 10573 10578 10584 10593 10600 10600 10602 10609 10613 10612 10612 10614 10617 10622 10629 10635 10638 10641 10641 10643 10649 10654 10658 10664 10671 10678 10684 10687 10688 10689 10690 10690 10691 10692 10692 10691 10691 10692 10695 10698 10701 10704 10706 10708 10711 10714 10717 10720 10723 10725 10726 10726 10725 10723 10722 10722 10718 10716 10718 10720 10721 10723 10723 10724 10724 10725 10725 10724 10724 10724 10724 10724 10723 10721 10719 10717 10716 10715 10713 10710 10707 10704 10702 10701
10555 10561 10565 10570 10579 10588 10591 10591 10595 10604 10606 10603 10606 10610 10611 10616 10625 10631 10634 10637 10640 10644 10647 10651 10655 10661 10668 10675 10681 10683 10683 10684 10685 10686 10686 10687 10686 10686 10686 10688 10691 10693 10696 10698 10700 10703 10705 10708 10710 10713 10714 10716 10717 10718 10718 10718 10718 10717 10715 10714 10714 10716 10717 10717 10718 10718 10719 10720 10720 10719 10719 10719 10719 10719 10717 10715 10713 10712 10711 10709 10708 10705 10701 10698 10695 10694
10547 10551 10555 10565 10575 10579 10581 10583 10590 10597 10596 10596 10602 10605 10606 10612 10621 10626 10630 10635 10639 10643 10645 10647 10651 10656 10664 10673 10677 10678 10679 10679 10680 10681 10681 10681 10681 10682 10683 10684 10686 10688 10691 10694 10696 10698 10699 10701 10703 10705 10707 10708 10710 10712 10712 10712 10712 10712 10711 10711 10711 10711 10711 10712 10712 10713 10713 10714 10714 10714 10714 10714 10714 10713 10711 10709 10708 10706 10705 10704 10702 10699 10696 10694 10691 10688
10541 10545 10554 10564 10568 10570 10574 10578 10584 10589 10588 10592 10599 10600 10601 10608 10615 10622 10627 10633 10639 10642 10643 10643 10646 10652 10660 10668 10672 10674 10675 10675 10675 10676 10676 10676 10677 10678 10679 10680 10681 10684 10688 10690 10691 10692 10693 10696 10698 10699 10701 10702 10704 10705 10706 10707 10707 10706 10706 10706 10706 10706 10706 10706 10707 10707 10707 10708 10708 10708 10709 10709 10709 10708 10705 10704 10702 10701 10700 10698 10696 10694 10691 10689 10686 10683
10538 10547 10554 10558 10560 10564 10569 10574 10579 10583 10586 10591 10595 10596 10599 10605 10612 10619 10625 10631 10637 10639 10639 10640 10642 10646 10653 10662 10668 10670 10671 10670 10670 10671 10672 10672 10673 10674 10674 10675 10678 10681 10683 10685 10686 10687 10689 10691 10692 10693 10695 10696 10698 10699 10701 10701 10701 10701 10701 10701 10701 10700 10701 10701 10701 10701 10701 10702 10702 10703 10703 10703 10703 10701 10700 10698 10697 10695 10694 10692 10690 10688 10685 10683 10680 10677
10535 10542 10547 10551 10556 10562 10567 10572 10578 10583 10587 10591 10593 10596 10599 10604 10610 10616 10621 10628 10633 10634 10635 10637 10638 10641 10646 10655 10663 10667 10667 10666 10666 10668 10669 10668 10668 10668 10669 10671 10674 10677 10679 10680 10682 10683 10684 10686 10687 10688 10689 10691 10692 10693 10695 10695 10696 10696 10696 10696 10696 10695 10695 10695 10695 10695 10695 10696 10696 10697 10697 10697 10697 10696 10694 10693 10691 10690 10689 10686 10684 10682 10679 10677 10674 10670
10530 10538 10546 10552 10557 10562 10566 10571 10576 10580 10582 10585 10588 10591 10595 10601 10606 10610 10615 10621 10625 10627 10629 10632 10635 10639 10643 10649 10656 10662 10663 10662 10663 10664 10664 10664 10663 10662 10664 10667 10670 10672 10675 10677 10678 10678 10679 10680 10682 10683 10684 10685 10687 10688 10689 10690 10690 10691 10691 10691 10690 10689 10689 10690 10690 10690 10690 10690 10691 10691 10692 10691 10691 10690 10689 10688 10686 10685 10683 10681 10679 10677 10674 10671 10668 10665
10525 10535 10543 10547 10551 10556 10561 10566 10569 10572 10576 10578 10579 10585 10593 10598 10600 10602 10607 10613 10617 10620 10623 10628 10634 10638 10641 10644 10649 10654 10658 10658 10659 10660 10659 10659 10657 10657 10660 10663 10665 10668 10670 10672 10673 10674 10674 10675 10677 10678 10679 10680 10681 10682 10683 10685 10686 10687 10687 10686 10685 10684 10684 10684 10684 10685 10685 10685 10685 10685 10686 10686 10686 10685 10684 10683 10681 10679 10678 10676 10674 10672 10670 10667 10664 10660
10522 10529 10532 10535 10542 10548 10554 10559 10562 10568 10573 10573 10577 10587 10593 10590 10590 10594 10600 10606 10610 10613 10619 10626 10632 10635 10638 10641 10642 10646 10652 10654 10655 10656 10655 10655 10653 10652 10655 10658 10660 10663 10665 10668 10669 10670 10670 10671 10673 10674 10675 10676 10676 10677 10678 10680 10681 10682 10682 10681 10679 10679 10679 10680 10680 10680 10680 10680 10680 10680 10681 10681 10681 10680 10679 10677 10676 10675 10673 10672 10670 10668 10666 10663 10659 10655
10518 10522 10523 10530 10537 10541 10546 10550 10555 10562 10567 10569 10576 10584 10581 10577 10583 10591 10595 10600 10605 10610 10617 10624 10628 10630 10634 10638 10638 10641 10645 10648 10650 10650 10650 10650 10647 10646 10650 10654 10656 10658 10661 10663 10665 10666 10666 10668 10669 10671 10671 10672 10672 10673 10674 10676 10677 10677 10676 10676 10675 10674 10675 10675 10676 10676 10675 10675 10675 10675 10676 10676 10676 10675 10674 10672 10671 10670 10669 10668 10666 10664 10662 10659 10655 10651
10508 10511 10515 10524 10531 10535 10538 10541 10547 10556 10562 10566 10570 10570 10567 10571 10582 10588 10592 10597 10602 10608 10614 10619 10623 10626 10630 10635 10636 10636 10639 10642 10645 10646 10646 10646 10644 10643 10647 10651 10653 10655 10657 10659 10660 10662 10663 10664 10665 10666 10667 10668 10668 10669 10670 10671 10671 10672 10671 10671 10670 10671 10671 10671 10671 10671 10670 10670 10670 10670 10670 10671 10670 10669 10669 10668 10667 10666 10665 10663 10662 10660 10658 10655 10651 10647
10500 10503 10509 10518 10524 10527 10530 10535 10546 10555 10559 10561 10561 10561 10565 10572 10579 10583 10587 10592 10597 10602 10608 10612 10618 10623 10626 10630 10631 10631 10634 10638 10640 10642 10643 10644 10643 10642 10644 10648 10650 10651 10652 10654 10656 10658 10659 10660 10660 10661 10662 10663 10664 10665 10665 10666 10667 10667 10666 10666 10667 10667 10667 10667 10666 10666 10665 10665 10665 10665 10665 10665 10664 10664 10664 10663 10663 10662 10660 10659 10658 10656 10654 10651 10648 10644
10493 10498 10505 10513 10517 10522 10530 10539 10549 10553 10553 10556 10559 10561 10565 10570 10574 10577 10582 10587 10591 10597 10602 10607 10614 10618 10621 10624 10625 10627 10630 10632 10634 10636 10638 10640 10640 10640 10641 10644 10646 10647 10648 10649 10651 10653 10655 10655 10656 10657 10658 10659 10659 10660 10661 10662 10662 10662 10662 10662 10663 10662 10662 10662 10661 10661 10660 10660 10659 10659 10659 10659 10659 10659 10659 10659 10658 10657 10656 10655 10654 10652 10650 10647 10644 10640
10490 10496 10503 10509 10515 10523 10533 10541 10543 10542 10546 10551 10555 10557 10560 10563 10567 10571 10577 10583 10587 10591 10596 10602 10608 10612 10614 10618 10621 10623 10624 10625 10628 10630 10632 10635 10637 10637 10639 10641 10642 10643 10645 10646 10647 10649 10650 10651 10652 10653 10654 10654 10655 10656 10657 10658 10657 10657 10658 10658 10657 10656 10656 10656 10656 10656 10655 10654 10654 10654 10654 10654 10654 10654 10654 10654 10653 10653 10652 10651 10650 10648 10647 10644 10641 10637
10488 10494 10500 10506 10513 10521 10528 10533 10533 10535 10539 10544 10546 10549 10552 10555 10560 10567 10574 10579 10581 10584 10589 10594 10601 10606 10610 10615 10618 10618 10619 10621 10624 10626 10629 10632 10633 10634 10636 10637 10638 10640 10642 10643 10644 10646 10647 10647 10648 10649 10649 10650 10651 10653 10654 10654 10653 10653 10654 10653 10652 10651 10651 10652 10651 10651 10650 10650 10649 10649 10649 10649 10649 10649 10649 10649 10649 10648 10647 10646 10645 10645 10643 10640 10637 10634
10483 10490 10497 10503 10510 10515 10520 10526 10528 10528 10531 10536 10542 10545 10548 10552 10558 10565 10570 10572 10573 10576 10581 10587 10594 10601 10607 10610 10612 10613 10613 10616 10619 10622 10625 10627 10628 10629 10631 10633 10635 10637 10639 10639 10641 10643 10642 10642 10644 10645 10645 10647 10648 10649 10649 10649 10649 10649 10649 10648 10647 10647 10647 10647 10646 10646 10645 10645 10645 10645 10645 10645 10645 10645 10645 10645 10644 10644 10643 10642 10641 10641 10639 10637 10634 10631
10481 10487 10493 10499 10505 10510 10516 10520 10521 10522 10527 10535 10541 10543 10546 10550 10554 10559 10562 10564 10567 10571 10576 10582 10589 10596 10601 10604 10606 10607 10608 10611 10615 10617 10620 10622 10623 10624 10625 10628 10630 10632 10634 10635 10637 10637 10637 10638 10640 10640 10641 10643 10643 10644 10644 10645 10644 10644 10643 10642 10641 10642 10642 10642 10641 10641 10641 10640 10640 10640 10640 10640 10640 10640 10640 10640 10640 10639 10638 10638 10637 10637 10635 10633 10631 10628
10476 10482 10488 10495 10503 10509 10513 10516 10519 10522 10527 10533 10537 10538 10540 10543 10546 10552 10556 10558 10563 10569 10574 10579 10584 10591 10596 10599 10601 10603 10605 10608 10610 10612 10614 10616 10617 10618 10619 10622 10625 10626 10628 10630 10630 10631 10632 10634 10635 10635 10636 10637 10637 10638 10639 10639 10639 10638 10637 10636 10636 10637 10636 10637 10636 10636 10635 10635 10635 10635 10635 10635 10635 10635 10635 10635 10635 10634 10634 10633 10633 10632 10631 10629 10627 10625
10470 10476 10483 10492 10499 10503 10505 10509 10514 10516 10520 10526 10530 10532 10535 10537 10540 10545 10550 10554 10561 10566 10571 10576 10580 10584 10589 10593 10596 10598 10601 10604 10605 10607 10609 10610 10612 10613 10615 10617 10618 10619 10621 10623 10623 10624 10627 10628 10628 10629 10630 10631 10632 10633 10634 10633 10633 10632 10632 10631 10631 10631 10631 10631 10631 10631 10630 10630 10630 10630 10630 10630 10629 10630 10630 10630 10630 10629 10629 10629 10628 10628 10627 10625 10623 10622
10466 10474 10481 10487 10491 10493 10497 10502 10506 10510 10513 10519 10523 10526 10529 10531 10534 10540 10546 10552 10558 10562 10567 10574 10577 10579 10584 10587 10589 10592 10595 10598 10600 10602 10603 10605 10607 10609 10611 10611 10611 10613 10615 10616 10616 10618 10620 10621 10622 10623 10624 10625 10627 10628 10628 10627 10626 10626 10627 10626 10626 10626 10626 10626 10626 10626 10625 10625 10625 10625 10624 10624 10624 10624 10624 10625 10625 10624 10624 10624 10623 10623 10622 10621 10619 10618
10465 10472 10478 10483 10485 10488 10492 10498 10502 10506 10511 10516 10520 10523 10526 10528 10532 10538 10544 10548 10553 10557 10563 10570 10573 10574 10577 10580 10583 10586 10590 10592 10593 10595 10597 10599 10602 10604 10605 10605 10606 10607 10608 10609 10611 10612 10614 10615 10617 10618 10619 10621 10622 10622 10622 10621 10621 10621 10622 10622 10622 10622 10621 10621 10621 10621 10620 10620 10620 10620 10619 10619 10619 10619 10619 10619 10619 10619 10619 10619 10619 10618 10617 10616 10615 10614
10463 10470 10475 10478 10480 10483 10488 10495 10500 10504 10509 10514 10518 10521 10524 10528 10532 10536 10540 10543 10548 10554 10558 10563 10566 10567 10570 10574 10578 10581 10584 10586 10587 10588 10590 10593 10596 10598 10600 10600 10600 10602 10602 10604 10605 10606 10608 10610 10611 10613 10615 10616 10617 10617 10616 10615 10616 10617 10617 10617 10617 10617 10616 10616 10616 10616 10615 10615 10615 10614 10614 10614 10614 10614 10614 10614 10614 10614 10614 10614 10613 10613 10612 10612 10611 10610
10463 10468 10472 10475 10477 10481 10488 10495 10499 10503 10508 10512 10516 10519 10523 10527 10529 10532 10535 10539 10544 10549 10552 10555 10559 10562 10565 10569 10572 10576 10579 10581 10581 10581 10582 10585 10589 10592 10593 10593 10594 10595 10597 10598 10600 10601 10603 10605 10606 10608 10610 10612 10612 10612 10611 10610 10611 10612 10613 10613 10612 10612 10611 10611 10611 10610 10610 10610 10609 10609 10609 10609 10609 10608 10608 10608 10608 10608 10608 10608 10608 10607 10607 10606 10606 10605
10461 10465 10469 10472 10476 10482 10488 10494 10498 10501 10505 10508 10512 10516 10520 10522 10524 10526 10529 10534 10538 10541 10545 10548 10552 10555 10557 10560 10563 10568 10571 10574 10574 10574 10576 10579 10582 10584 10585 10586 10588 10589 10591 10593 10595 10596 10597 10599 10601 10604 10605 10607 10607 10606 10605 10604 10605 10607 10609 10608 10607 10606 10606 10605 10605 10605 10605 10604 10604 10604 10604 10603 10603 10603 10602 10602 10602 10603 10603 10603 10602 10601 10601 10601 10600 10600
10457 10462 10465 10469 10474 10479 10484 10489 10493 10495 10499 10503 10506 10510 10514 10516 10518 10520 10524 10528 10531 10535 10538 10541 10543 10545 10548 10551 10555 10559 10563 10565 10566 10567 10570 10573 10575 10577 10578 10580 10581 10583 10585 10588 10589 10590 10591 10594 10596 10598 10601 10601 10600 10599 10598 10598 10600 10602 10603 10602 10601 10601 10600 10600 10600 10599 10599 10599 10599 10598 10598 10598 10597 10597 10597 10596 10597 10597 10597 10597 10596 10595 10595 10594 10594 10594
10452 10456 10459 10463 10468 10473 10479 10483 10486 10489 10493 10497 10500 10504 10508 10510 10512 10515 10518 10522 10526 10529 10532 10533 10536 10538 10541 10544 10547 10550 10554 10557 10558 10561 10564 10567 10568 10570 10572 10573 10575 10577 10579 10581 10582 10583 10586 10589 10591 10593 10595 10595 10593 10592 10592 10593 10595 10597 10596 10595 10595 10595 10595 10595 10594 10594 10594 10593 10593 10593 10592 10592 10592 10591 10591 10591 10591 10591 10591 10591 10590 10589 10589 10588 10588 10587
10447 10452 10456 10460 10464 10470 10474 10477 10481 10486 10490 10492 10494 10498 10502 10504 10507 10510 10513 10517 10521 10523 10525 10527 10530 10533 10535 10538 10541 10544 10547 10549 10552 10555 10558 10559 10561 10563 10565 10566 10568 10570 10572 10573 10575 10577 10581 10584 10586 10588 10589 10588 10587 10586 10586 10588 10590 10590 10589 10589 10589 10589 10589 10589 10588 10588 10588 10588 10587 10587 10586 10586 10586 10586 10585 10585 10585 10584 10584 10584 10584 10583 10583 10582 10581 10580
10444 10449 10453 10457 10462 10467 10470 10474 10479 10484 10486 10487 10489 10494 10497 10500 10503 10505 10509 10512 10515 10517 10519 10522 10525 10528 10531 10533 10535 10537 10540 10542 10545 10548 10550 10552 10554 10557 10558 10559 10561 10564 10566 10567 10569 10572 10576 10578 10581 10582 10582 10581 10580 10579 10580 10583 10584 10583 10583 10583 10584 10583 10583 10583 10582 10582 10582 10582 10582 10581 10581 10580 10580 10580 10579 10579 10578 10578 10578 10577 10577 10576 10576 10575 10575 10574
10441 10446 10450 10453 10458 10462 10466 10470 10475 10479 10481 10482 10485 10489 10493 10496 10498 10501 10504 10507 10510 10513 10515 10518 10521 10524 10526 10527 10529 10530 10532 10535 10539 10541 10543 10545 10547 10549 10551 10553 10556 10559 10561 10562 10564 10567 10570 10573 10575 10575 10575 10575 10573 10573 10575 10577 10578 10577 10577 10577 10577 10577 10577 10577 10576 10576 10576 10576 10576 10575 10575 10575 10574 10573 10573 10573 10572 10571 10571 10570 10570 10570 10569 10569 10568 10567
10438 10442 10445 10449 10454 10457 10461 10465 10470 10474 10476 10478 10482 10486 10489 10492 10494 10496 10500 10503 10506 10509 10512 10514 10516 10519 10520 10521 10522 10524 10526 10529 10532 10535 10536 10537 10539 10542 10545 10548 10552 10554 10556 10557 10559 10561 10565 10567 10568 10569 10569 10568 10567 10568 10570 10571 10571 10571 10571 10571 10571 10571 10571 10571 10570 10570 10570 10570 10569 10569 10569 10568 10568 10567 10567 10566 10565 10565 10564 10564 10563 10563 10562 10562 10561 10560
10434 10438 10442 10445 10450 10453 10457 10461 10465 10469 10471 10474 10478 10482 10486 10488 10490 10492 10496 10499 10502 10505 10507 10509 10510 10512 10513 10514 10516 10518 10521 10523 10526 10528 10530 10530 10532 10537 10540 10542 10545 10548 10550 10552 10554 10556 10559 10561 10562 10563 10563 10562 10562 10563 10564 10565 10565 10565 10565 10565 10565 10565 10565 10565 10564 10564 10564 10564 10563 10563 10562 10562 10562 10561 10560 10560 10559 10558 10558 10557 10556 10556 10555 10554 10553 10552
10431 10435 10439 10442 10446 10449 10452 10456 10460 10464 10467 10470 10474 10478 10481 10483 10486 10489 10493 10496 10496 10498 10500 10502 10503 10505 10507 10508 10511 10513 10515 10518 10521 10523 10524 10526 10529 10533 10536 10537 10539 10542 10544 10547 10549 10551 10553 10555 10556 10556 10556 10557 10557 10558 10558 10559 10559 10559 10559 10559 10559 10559 10559 10559 10558 10558 10558 10558 10557 10557 10556 10556 10555 10555 10554 10553 10553 10552 10551 10550 10549 10548 10548 10547 10546 10545
10427 10431 10435 10438 10441 10444 10448 10452 10455 10459 10462 10466 10470 10474 10477 10479 10483 10486 10488 10487 10486 10489 10493 10494 10496 10498 10501 10503 10505 10507 10509 10513 10516 10517 10518 10521 10524 10527 10529 10531 10533 10536 10538 10541 10543 10546 10547 10549 10549 10550 10550 10550 10551 10552 10552 10553 10553 10553 10554 10554 10554 10554 10553 10553 10553 10552 10551 10551 10550 10550 10550 10549 10549 10548 10548 10547 10546 10545 10544 10543 10542 10541 10540 10539 10537 10536
10423 10427 10430 10434 10437 10440 10443 10447 10451 10454 10457 10461 10465 10469 10472 10475 10478 10478 10476 10476 10480 10485 10487 10488 10490 10492 10495 10497 10499 10501 10504 10507 10509 10511 10513 10515 10518 10521 10523 10526 10528 10530 10532 10535 10537 10539 10541 10543 10543 10543 10543 10544 10545 10546 10547 10547 10548 10548 10548 10548 10548 10548 10548 10547 10547 10546 10545 10545 10544 10544 10543 10543 10542 10542 10541 10540 10539 10538 10537 10536 10535 10533 10532 10530 10529 10528
10419 10422 10426 10429 10433 10436 10439 10443 10447 10450 10451 10455 10459 10463 10467 10469 10468 10466 10467 10471 10477 10480 10482 10483 10485 10487 10489 10491 10494 10496 10499 10502 10504 10506 10508 10510 10513 10516 10519 10521 10523 10525 10527 10529 10531 10533 10535 10537 10537 10537 10537 10538 10540 10541 10541 10542 10542 10542 10542 10542 10542 10542 10542 10541 10540 10540 10539 10539 10538 10537 10537 10536 10535 10535 10534 10533 10532 10531 10530 10528 10527 10525 10524 10522 10521 10519
10416 10419 10423 10426 10429 10431 10434 10438 10441 10443 10445 10448 10452 10457 10460 10460 10459 10460 10464 10469 10472 10475 10477 10478 10481 10483 10485 10486 10489 10492 10495 10498 10499 10501 10503 10505 10508 10511 10513 10516 10518 10519 10521 10522 10525 10527 10530 10531 10531 10531 10532 10533 10534 10535 10536 10536 10536 10536 10536 10536 10536 10536 10535 10535 10534 10533 10533 10532 10531 10530 10530 10529 10528 10527 10527 10526 10525 10523 10522 10520 10519 10517 10515 10514 10512 10510
10413 10416 10419 10421 10423 10425 10429 10432 10435 10437 10439 10443 10447 10450 10452 10454 10455 10458 10461 10464 10467 10470 10471 10473 10476 10478 10480 10482 10485 10489 10491 10493 10494 10496 10498 10501 10503 10506 10508 10510 10512 10514 10515 10517 10519 10521 10524 10525 10525 10526 10527 10528 10529 10529 10529 10530 10530 10530 10530 10530 10530 10530 10529 10528 10527 10526 10525 10525 10524 10523 10523 10522 10521 10520 10519 10518 10517 10515 10514 10512 10511 10509 10507 10505 10503 10501
10409 10411 10413 10414 10417 10421 10424 10426 10429 10431 10434 10437 10440 10443 10446 10449 10451 10453 10455 10458 10461 10464 10466 10469 10472 10474 10476 10479 10483 10486 10487 10488 10490 10491 10494 10496 10498 10500 10503 10505 10507 10508 10509 10511 10513 10515 10517 10519 10520 10521 10521 10522 10523 10523 10524 10524 10524 10524 10524 10524 10523 10523 10522 10521 10520 10519 10518 10517 10517 10516 10516 10515 10514 10513 10512 10511 10509 10508 10506 10504 10503 10501 10499 10497 10495 10492
10403 10405 10408 10410 10414 10416 10418 10420 10423 10425 10428 10431 10434 10437 10440 10443 10444 10446 10450 10453 10456 10459 10462 10465 10468 10470 10473 10477 10480 10482 10483 10485 10487 10488 10490 10492 10493 10495 10497 10499 10501 10502 10503 10505 10507 10508 10511 10513 10514 10515 10516 10517 10517 10518 10518 10518 10518 10518 10518 10517 10517 10516 10515 10515 10513 10512 10511 10511 10510 10510 10509 10508 10507 10506 10504 10503 10502 10500 10499 10497 10494 10492 10490 10488 10486 10483
10399 10402 10405 10407 10409 10411 10412 10414 10417 10420 10423 10426 10428 10431 10434 10436 10439 10442 10446 10450 10453 10456 10459 10461 10465 10468 10470 10474 10477 10478 10480 10481 10483 10485 10486 10487 10489 10490 10491 10493 10495 10496 10498 10499 10500 10502 10504 10507 10509 10510 10511 10511 10512 10512 10512 10512 10512 10512 10512 10511 10510 10510 10509 10508 10507 10506 10505 10504 10503 10503 10502 10500 10499 10498 10497 10495 10494 10492 10490 10488 10486 10484 10481 10479 10476 10473
10397 10399 10401 10402 10404 10407 10408 10410 10412 10416 10418 10421 10424 10427 10430 10433 10436 10440 10443 10447 10449 10452 10455 10458 10461 10464 10467 10470 10472 10474 10475 10477 10480 10481 10482 10483 10484 10486 10487 10489 10490 10491 10492 10493 10495 10498 10500 10502 10504 10505 10505 10506 10506 10506 10507 10507 10506 10506 10506 10505 10504 10504 10503 10502 10501 10500 10498 10497 10497 10495 10494 10493 10491 10490 10489 10487 10486 10484 10482 10479 10477 10474 10471 10469 10466 10463
10395 10396 10398 10399 10402 10404 10406 10407 10409 10412 10415 10418 10421 10425 10428 10431 10434 10437 10440 10443 10447 10449 10452 10455 10458 10461 10463 10465 10467 10470 10471 10473 10475 10477 10478 10479 10480 10481 10483 10484 10485 10486 10488 10490 10493 10495 10497 10498 10499 10499 10500 10500 10500 10501 10501 10500 10500 10500 10500 10499 10498 10497 10497 10496 10495 10493 10492 10490 10489 10488 10487 10486 10484 10482 10481 10480 10478 10475 10473 10470 10467 10465 10462 10458 10455 10452
10393 10395 10396 10399 10401 10403 10404 10405 10407 10410 10413 10416 10420 10423 10426 10429 10432 10435 10438 10441 10444 10447 10450 10452 10455 10457 10459 10461 10463 10465 10467 10469 10471 10473 10473 10473 10475 10477 10478 10479 10481 10483 10486 10488 10490 10491 10492 10493 10493 10494 10494 10495 10495 10494 10494 10494 10494 10494 10494 10493 10492 10491 10490 10489 10489 10487 10486 10484 10483 10482 10480 10479 10477 10475 10473 10471 10469 10466 10463 10460 10457 10454 10451 10448 10444 10441